Columbus AFB, MS

2:02 AM CST on December 13, 2017 (GMT -0600)
Columbus Air Force Base

Weather History for KCBM - December, 2013

Change the Weather History Date:

Wednesday, December 4, 2013

  Actual Average Record
Temperature  
Mean Temperature 70 °F -  
Max Temperature 77 °F 57 °F 77 °F (2013)
Min Temperature 62 °F 38 °F 21 °F (2006)
Cooling Degree Days 4    
Growing Degree Days 20 (Base 50)    
Moisture  
Dew Point 64 °F    
Average Humidity 90    
Maximum Humidity 100    
Minimum Humidity 60    
Precipitation  
Precipitation 0.00 in - - ()
Sea Level Pressure  
Sea Level Pressure 29.85 in    
Wind  
Wind Speed 9 mph (South)    
Max Wind Speed 13 mph    
Max Gust Speed 21 mph    
Visibility 10 miles    
Events      
Averages and records for this station are not official NWS values.
T = Trace of Precipitation, MM = Missing Value Source: NWS Daily Summary

Daily Weather History Graph

Daily Weather History Graph

Search for Another Location

Airport or City:

Trip Planner

Search our weather history database for the weather conditions in past years. The results will help you decide how hot, cold, wet, or windy it might be!

Date:

Astronomy

Dec. 04, 2013 Rise Set
Actual Time 6:42 AM CST 4:45 PM CST
Civil Twilight 6:15 AM CST 5:12 PM CST
Nautical Twilight 5:44 AM CST 5:43 PM CST
Astronomical Twilight 5:14 AM CST 6:13 PM CST
Moon 8:12 AM CST (12/4) 6:53 PM CST (12/4)
Length of Visible Light 10h 56m
Length of Day
10h 02m
Waxing Crescent, 4% of the Moon is Illuminated
Dec 4
Waxing Crescent
Dec 9
First Quarter
Dec 17
Full
Dec 25
Last Quarter
Jan 1
New

Hourly Weather History & Observations

Time (CST) Temp. Dew Point Humidity Pressure Visibility Wind Dir Wind Speed Gust Speed Precip Events Conditions
12:09 AM 64.4 °F 64.4 °F 100% 29.78 in 10.0 mi South 10.4 mph - N/A   Overcast
12:19 AM 64.4 °F 64.4 °F 100% 29.78 in 10.0 mi South 6.9 mph - N/A   Overcast
12:25 AM 64.4 °F 64.4 °F 100% 29.78 in 10.0 mi South 9.2 mph - N/A   Overcast
12:35 AM 66.2 °F 64.4 °F 94% 29.78 in 10.0 mi South 6.9 mph - N/A   Overcast
12:41 AM 66.2 °F 64.4 °F 94% 29.78 in 10.0 mi SSW 6.9 mph - N/A   Overcast
12:46 AM 66.2 °F 64.4 °F 94% 29.78 in 10.0 mi South 6.9 mph - N/A   Overcast
12:58 AM 65.7 °F 64.0 °F 94% 29.79 in 10.0 mi South 9.2 mph - N/A   Overcast
1:28 AM 66.2 °F 64.4 °F 94% 29.79 in 10.0 mi SSW 10.4 mph - N/A   Overcast
1:33 AM 66.2 °F 64.4 °F 94% 29.79 in 10.0 mi South 8.1 mph - N/A   Mostly Cloudy
1:58 AM 65.5 °F 63.7 °F 94% 29.80 in 10.0 mi South 8.1 mph - N/A   Mostly Cloudy
1:59 AM 66.2 °F 64.4 °F 94% 29.79 in 10.0 mi South 9.2 mph - N/A   Mostly Cloudy
2:19 AM 64.4 °F 64.4 °F 100% 29.79 in 10.0 mi South 9.2 mph - N/A   Scattered Clouds
2:58 AM 64.2 °F 63.9 °F 99% 29.81 in 10.0 mi South 8.1 mph - N/A   Partly Cloudy
3:58 AM 63.9 °F 63.9 °F 100% 29.82 in 10.0 mi South 6.9 mph - N/A   Scattered Clouds
4:58 AM 63.0 °F 63.0 °F 100% 29.82 in 10.0 mi South 9.2 mph - N/A   Clear
5:08 AM 62.6 °F 62.6 °F 100% 29.82 in 10.0 mi South 8.1 mph - N/A   Partly Cloudy
5:28 AM 62.6 °F 62.6 °F 100% 29.82 in 10.0 mi South 8.1 mph - N/A   Mostly Cloudy
5:48 AM 62.6 °F 62.6 °F 100% 29.83 in 10.0 mi SSE 9.2 mph - N/A   Scattered Clouds
5:58 AM 62.8 °F 62.8 °F 100% 29.84 in 9.0 mi South 8.1 mph - N/A   Scattered Clouds
6:23 AM 62.6 °F 62.6 °F 100% 29.84 in 9.0 mi South 5.8 mph - N/A   Mostly Cloudy
6:28 AM 62.6 °F 62.6 °F 100% 29.83 in 9.0 mi SSE 6.9 mph - N/A   Scattered Clouds
6:58 AM 63.1 °F 63.1 °F 100% 29.87 in 9.0 mi South 8.1 mph - N/A   Partly Cloudy
7:02 AM 62.6 °F 62.6 °F 100% 29.86 in 9.0 mi South 8.1 mph - N/A   Mostly Cloudy
7:28 AM 64.4 °F 64.4 °F 100% 29.87 in 9.0 mi SSE 6.9 mph - N/A   Mostly Cloudy
7:33 AM 64.4 °F 64.4 °F 100% 29.87 in 8.0 mi South 8.1 mph - N/A   Mostly Cloudy
7:53 AM 64.4 °F 64.4 °F 100% 29.87 in 9.0 mi South 9.2 mph - N/A   Mostly Cloudy
7:58 AM 64.6 °F 64.6 °F 100% 29.88 in 10.0 mi South 9.2 mph - N/A   Mostly Cloudy
8:23 AM 66.2 °F 66.2 °F 100% 29.88 in 10.0 mi South 8.1 mph - N/A   Mostly Cloudy
8:48 AM 66.2 °F 64.4 °F 94% 29.89 in 10.0 mi South 10.4 mph - N/A   Mostly Cloudy
8:58 AM 66.7 °F 64.8 °F 93% 29.89 in 10.0 mi South 12.7 mph - N/A   Mostly Cloudy
9:10 AM 68.0 °F 64.4 °F 88% 29.89 in 10.0 mi South 12.7 mph - N/A   Overcast
9:15 AM 68.0 °F 64.4 °F 88% 29.89 in 10.0 mi South 12.7 mph - N/A   Overcast
9:58 AM 69.3 °F 64.2 °F 84% 29.91 in 10.0 mi South 12.7 mph - N/A   Mostly Cloudy
10:23 AM 69.8 °F 64.4 °F 83% 29.88 in 10.0 mi South 11.5 mph - N/A   Mostly Cloudy
10:58 AM 72.1 °F 64.2 °F 76% 29.89 in 10.0 mi South 11.5 mph - N/A   Mostly Cloudy
11:03 AM 73.4 °F 64.4 °F 73% 29.88 in 10.0 mi SW 12.7 mph - N/A   Mostly Cloudy
11:08 AM 73.4 °F 64.4 °F 73% 29.88 in 10.0 mi SSW 10.4 mph 19.6 mph N/A   Scattered Clouds
11:58 AM 73.9 °F 64.2 °F 72% 29.85 in 10.0 mi SSW 10.4 mph - N/A   Partly Cloudy
12:58 PM 75.2 °F 62.8 °F 65% 29.83 in 10.0 mi SSW 9.2 mph 17.3 mph N/A   Scattered Clouds
1:58 PM 76.6 °F 62.1 °F 61% 29.82 in 10.0 mi SSW 12.7 mph 20.7 mph N/A   Partly Cloudy
2:58 PM 77.0 °F 62.1 °F 60% 29.81 in 10.0 mi SSW 10.4 mph - N/A   Scattered Clouds
3:58 PM 76.5 °F 63.0 °F 63% 29.82 in 10.0 mi South 9.2 mph - N/A   Clear
4:58 PM 72.1 °F 61.5 °F 69% 29.84 in 10.0 mi South 6.9 mph - N/A   Clear
5:48 PM 69.8 °F 62.6 °F 78% 29.85 in 10.0 mi SSE 4.6 mph - N/A   Mostly Cloudy
5:58 PM 68.2 °F 62.1 °F 81% 29.86 in 10.0 mi South 5.8 mph - N/A   Mostly Cloudy
6:23 PM 68.0 °F 62.6 °F 83% 29.86 in 10.0 mi SSE 6.9 mph - N/A   Scattered Clouds
6:58 PM 65.3 °F 61.7 °F 88% 29.87 in 10.0 mi SSE 8.1 mph - N/A   Scattered Clouds
7:03 PM 66.2 °F 62.6 °F 88% 29.86 in 10.0 mi SSE 6.9 mph - N/A   Mostly Cloudy
7:13 PM 64.4 °F 62.6 °F 94% 29.87 in 10.0 mi SSE 6.9 mph - N/A   Scattered Clouds
7:58 PM 63.0 °F 61.3 °F 94% 29.88 in 10.0 mi South 6.9 mph - N/A   Clear
8:58 PM 67.8 °F 62.6 °F 83% 29.90 in 10.0 mi South 9.2 mph - N/A   Clear
9:58 PM 68.0 °F 63.5 °F 85% 29.92 in 10.0 mi South 9.2 mph - N/A   Clear
10:58 PM 67.6 °F 64.6 °F 90% 29.93 in 10.0 mi South 9.2 mph - N/A   Clear
11:42 PM 68.0 °F 66.2 °F 94% 29.93 in 10.0 mi South 10.4 mph - N/A   Partly Cloudy
11:52 PM 68.0 °F 66.2 °F 94% 29.93 in 10.0 mi South 10.4 mph - N/A   Mostly Cloudy
11:58 PM 67.8 °F 66.0 °F 94% 29.94 in 10.0 mi South 11.5 mph - N/A   Mostly Cloudy